AFL1404 UIII-UNKL

Flight info

Callsign AFL1404
Flight time N/A
Altitude 38000
Route BOGRA4D BOGRA A815 TUTEK A91 SUKOR W176 TISBU A311 LALOM LALOM2S
Aircraft B77W/H-SDE1E2E3FGHIJ2J3J4J5M1RWXY/LB1D1

Departure

Time 2026-04-28 14:42
Airport Irkutsk International Airport (UIII)

Arrival

Time N/A
Airport Krasnoyarsk International Airport (UNKL)
Time Latitude Longitude Altitude Speed Heading
2026-04-28 14:21 52.27113 104.35856 1605 ft 0 kts 358°
2026-04-28 14:27 52.27114 104.35856 1605 ft 0 kts 358°
2026-04-28 14:27 52.27130 104.35855 1604 ft 6 kts 358°
2026-04-28 14:27 52.27202 104.35851 1601 ft 12 kts 358°
2026-04-28 14:27 52.27300 104.35846 1597 ft 8 kts 357°
2026-04-28 14:28 52.27306 104.35845 1597 ft 0 kts 357°
2026-04-28 14:30 52.27310 104.35845 1597 ft 1 kts 357°
2026-04-28 14:30 52.27306 104.35845 1597 ft 1 kts 357°
2026-04-28 14:31 52.27287 104.35847 1598 ft 4 kts 357°
2026-04-28 14:31 52.27227 104.35851 1600 ft 7 kts 357°
2026-04-28 14:31 52.27211 104.35852 1601 ft 5 kts 357°
2026-04-28 14:31 52.27142 104.35857 1604 ft 15 kts 357°
2026-04-28 14:32 52.27120 104.35859 1605 ft 0 kts 357°
2026-04-28 14:33 52.27125 104.35858 1605 ft 2 kts 357°
2026-04-28 14:34 52.27178 104.35970 1604 ft 9 kts 78°
2026-04-28 14:34 52.27181 104.36084 1605 ft 13 kts 94°
2026-04-28 14:34 52.27178 104.36265 1605 ft 16 kts 99°
2026-04-28 14:35 52.27136 104.36488 1607 ft 25 kts 110°
2026-04-28 14:35 52.27063 104.36826 1614 ft 37 kts 110°
2026-04-28 14:35 52.27000 104.37189 1615 ft 25 kts 85°
2026-04-28 14:35 52.26940 104.37508 1619 ft 35 kts 115°
2026-04-28 14:36 52.26831 104.37917 1625 ft 40 kts 111°
2026-04-28 14:36 52.26769 104.38132 1629 ft 2 kts 122°
2026-04-28 14:36 52.26757 104.38176 1630 ft 8 kts 110°
2026-04-28 14:36 52.26711 104.38366 1634 ft 29 kts 113°
2026-04-28 14:37 52.26603 104.38783 1643 ft 44 kts 112°
2026-04-28 14:37 52.26484 104.39230 1653 ft 42 kts 113°
2026-04-28 14:37 52.26342 104.39769 1656 ft 62 kts 112°
2026-04-28 14:37 52.26154 104.40476 1650 ft 69 kts 114°
2026-04-28 14:38 52.26001 104.41094 1668 ft 34 kts 86°
2026-04-28 14:38 52.26060 104.41207 1672 ft 11 kts 26°
2026-04-28 14:38 52.26167 104.41287 1673 ft 17 kts 22°
2026-04-28 14:38 52.26235 104.41248 1671 ft 10 kts 303°
2026-04-28 14:39 52.26258 104.41176 1669 ft 0 kts 292°
2026-04-28 14:41 52.26258 104.41175 1669 ft 1 kts 292°
2026-04-28 14:42 52.26318 104.40949 1664 ft 59 kts 293°
2026-04-28 14:42 52.26603 104.39885 1650 ft 142 kts 292°
2026-04-28 14:42 52.27073 104.38157 2126 ft 173 kts 296°
2026-04-28 14:42 52.27589 104.36325 2899 ft 184 kts 293°
2026-04-28 14:43 52.28124 104.34264 3061 ft 215 kts 294°
2026-04-28 14:43 52.28777 104.31853 3183 ft 246 kts 294°
2026-04-28 14:43 52.29626 104.29340 3728 ft 256 kts 311°
2026-04-28 14:43 52.31059 104.27721 4477 ft 255 kts 338°
2026-04-28 14:44 52.32716 104.26769 5143 ft 258 kts 339°
2026-04-28 14:44 52.34419 104.25645 5719 ft 270 kts 339°
2026-04-28 14:44 52.36181 104.24585 6448 ft 274 kts 340°
2026-04-28 14:44 52.37983 104.23518 7242 ft 276 kts 341°
2026-04-28 14:45 52.39792 104.22464 8005 ft 279 kts 341°
2026-04-28 14:45 52.41594 104.21381 8722 ft 282 kts 339°
2026-04-28 14:45 52.43429 104.20209 9450 ft 285 kts 339°
2026-04-28 14:45 52.45286 104.19038 10166 ft 288 kts 339°
2026-04-28 14:46 52.47196 104.17829 10393 ft 311 kts 339°
2026-04-28 14:46 52.49299 104.16496 10597 ft 334 kts 339°
2026-04-28 14:46 52.51463 104.15120 11345 ft 338 kts 339°
2026-04-28 14:46 52.53637 104.13737 12219 ft 338 kts 339°
2026-04-28 14:47 52.55850 104.12326 13007 ft 341 kts 339°
2026-04-28 14:47 52.58040 104.10928 13724 ft 346 kts 339°
2026-04-28 14:47 52.60279 104.09496 14446 ft 350 kts 339°
2026-04-28 14:47 52.62546 104.08045 15167 ft 353 kts 339°
2026-04-28 14:48 52.64839 104.06576 15877 ft 357 kts 339°
2026-04-28 14:48 52.67191 104.05068 16579 ft 361 kts 339°
2026-04-28 14:48 52.69534 104.03563 17256 ft 365 kts 339°
2026-04-28 14:48 52.71902 104.02041 17919 ft 368 kts 339°
2026-04-28 14:49 52.74281 104.00510 18566 ft 372 kts 339°
2026-04-28 14:49 52.76685 103.98967 19204 ft 375 kts 339°
2026-04-28 14:49 52.78064 103.98086 19557 ft 377 kts 339°